Location: Unspecified
(0.0000°N, 0.0000°E)
Time: 05:43:34
(UTC+00:00)

Explorer 7 - Pass Details

Date: 02 October 2020
Orbit: 484 x 678 km, 50.3° (Epoch: 28 October)

Event Time Altitude Azimuth Distance (km) Brightness Sun altitude
Rises 19:58:52 0° 207° (SSW) 2,565 10.6 -32.4°
Enters shadow 19:59:44 - 205° (SSW) 2,213 10.2 -32.6°
Reaches altitude 10° 20:01:03 10° 201° (SSW) 1,698 - -32.9°
Maximum altitude 20:04:45 47° 127° (SE) 685 - -33.8°
Drops below altitude 10° 20:08:38 10° 52° (NE) 1,778 - -34.8°
Sets 20:10:58 0° 46° (NE) 2,700 - -35.4°
